Regional Weather Roundup
Issued by NWS Sterling, VA

Home | Current Version | Previous Version | Text Only | Print | Product List | Glossary Off
Versions: 1 2 3 4 5 6 7 8 9 10 11 12 13 14 15 16 17 18 19 20 21 22 23 24 25 26 27 28 29 30 31 32 33 34 35 36 37 38 39 40 41 42 43 44 45 46 47 48 49 50

000
ASUS41 KLWX 310610
RWRLWX

REGIONAL WEATHER ROUNDUP
NATIONAL WEATHER SERVICE BALTIMORE MD/WASHINGTON DC
200 AM EDT THU JUL 31 2014

Note: "FAIR" indicates few or no clouds below 12,000 feet
with no significant weather and/or obstructions to visibility.
 TC=TEMPERATURE CELSIUS

 * =Non NWS site. Station does not report precipitation (e.g. rain,
    snow, etc.), thunder, or fog.

DCZ001-MDZ009-015-VAZ040>042-051-053>054-310700-
WASHINGTON METRO
  /KDAA//-FT BELVOIR

CITY           SKY/WX    TMP DP  RH WIND       PRES   REMARKS
WASHINGTON NAT CLEAR     69  58  67 S7        30.08R
DULLES         CLOUDY    64  58  80 NW6       30.08R
ANDREWS AFB    CLEAR     63  56  78 S7        30.07S
QUANTICO       CLEAR     64  60  87 NW6       30.09R
COLLEGE PARK*  CLEAR     61  59  94 CALM      30.07S
LEESBURG*      CLOUDY    64  61  88 CALM      30.08S
GAITHERSBURG*  CLOUDY    63  55  77 CALM      30.12S

$$

MDZ006>007-011-014-310700-
BALTIMORE METRO

CITY           SKY/WX    TMP DP  RH WIND       PRES   REMARKS
BWI AIRPORT    PTCLDY    62  55  77 SW3       30.07R
MD SCIENCE CTR   N/A     70  55  59 MISG      30.08R
MARTIN STATE   CLEAR     63  61  94 CALM      30.08R
ANNAPOLIS      CLEAR     66  58  75 CALM      30.06S
FORT MEADE*    CLEAR     55  54  94 CALM      30.09S

$$

MDZ012-015-019>023-310700-
MARYLAND EASTERN SHORE

CITY           SKY/WX    TMP DP  RH WIND       PRES   REMARKS
OCEAN CITY     CLEAR     58  56  93 NW3       30.09R
SALISBURY      CLEAR     61  53  75 CALM      30.09R
BAY BRIDGE AP*   N/A     70  59  68 S5        30.07S
CAMBRIDGE*     CLEAR     61  57  88 CALM      30.08R
EASTON*        CLEAR     66  60  79 CALM      30.11S

$$

MDZ017>025-310700-
SOUTHERN MARYLAND

CITY           SKY/WX    TMP DP  RH WIND       PRES   REMARKS
PATUXENT RIVER CLEAR     66  59  78 S6        30.08R
ST INIGOES     CLEAR     61  57  87 CALM      30.08R
LEONARDTOWN*   CLEAR     64  59  82 S3        30.09S

$$

MDZ003>005-310700-
NORTH CENTRAL MARYLAND

CITY           SKY/WX    TMP DP  RH WIND       PRES   REMARKS
FREDERICK*     CLOUDY    64  63  94 SE3       30.10S
HAGERSTOWN APT CLOUDY    63  61  93 W3        30.08R
WESTMINSTER*   RAIN      66  61  82 CALM      30.09S

$$

MDZ501>502-310700-
WESTERN MARYLAND

CITY           SKY/WX    TMP DP  RH WIND       PRES   REMARKS
OAKLAND*       CLEAR     54 N/A N/A SW5       30.13F
CUMBERLAND*    CLEAR     61  55  82 CALM      30.12F

$$

VAZ025>031-310700-
SHENANDOAH VALLEY

CITY           SKY/WX    TMP DP  RH WIND       PRES   REMARKS
WINCHESTER*    CLOUDY    63  59  88 CALM      30.08S
STAUNTON*      PTCLDY    57  54  90 CALM      30.12S

$$

WVZ021-048>050-054>055-310700-
EASTERN WEST VIRGINIA PANHANDLE

CITY           SKY/WX    TMP DP  RH WIND       PRES   REMARKS
MARTINSBURG    CLOUDY    64  59  83 SW3       30.09R
PETERSBURG*    CLEAR     56  52  86 CALM      30.11S FOG

$$

VAZ036>039-050-310700-
CENTRAL FOOTHILLS

CITY           SKY/WX    TMP DP  RH WIND       PRES   REMARKS
CHARLOTTESVILL CLEAR     61  58  90 CALM      30.09R
ORANGE*        CLEAR     59  55  88 CALM      30.10R

$$

VAZ055>057-310700-
NORTH AND CENTRAL PIEDMONT

CITY           SKY/WX    TMP DP  RH WIND       PRES   REMARKS
FREDERICKSBRG* CLEAR     62  60  94 CALM      30.08R
STAFFORD*      CLEAR     56  56 100 CALM      30.12S FOG

$$

NCZ024-NYZ072-PAZ021-071-VAZ022-071-310700-
OTHER REGIONAL OBSERVATIONS

CITY           SKY/WX    TMP DP  RH WIND       PRES   REMARKS
NEW YORK CITY  CLEAR     70  54  56 W3        30.08S
PHILADELPHIA   CLEAR     67  57  70 CALM      30.07S
PITTSBURGH     MOCLDY    61  57  87 CALM      30.06S
ROANOKE        PTCLDY    61  56  83 CALM      30.14S
RICHMOND       CLEAR     66  60  81 SE5       30.09R
RALEIGH        CLOUDY    70  64  81 S3        30.09S

$$

ANZ530>537-310700-
MARINE OBSERVATIONS

STATION/POSITION TIME  TEMP    WIND        PRES
                       AIR SEA DIR/SP/G
                 (UTC) (F)     (DEG/KT/KT) (MB)
THOMAS PT LIGHT  0600   73 77  220/  8/  9 1018.6F
BALT KEY BRIDGE  0600   69     210/  5/  7 1017.7F
COVE POINT       0600   72     200/  8/ 10 1018.3R
LEWISETTA        0600   68 77  230/  5/  6 1018.4S
SOLOMONS ISLAND  0600      80                N/A
PINEY POINT      0600          200/  8/  9   N/A

$$



USA.gov is the U.S. government's official web portal to all federal, state and local government web resources and services.